Location: Unspecified
(0.0000°N, 0.0000°E)
Time: 06:48:38
(UTC+00:00)

ITAMSAT 1 - Visible Passes

Search period start: 22 July 2018 00:00
Search period end: 01 August 2018 00:00
Orbit: 785 x 796 km, 98.9° (Epoch: 21 July)

Date Brightness Start Highest point End Pass type
(mag) Time Alt. Az. Time Alt. Az. Time Alt. Az.
22 Jul 8.0 04:11:34 10° N 04:15:45 50° NW 04:15:45 50° NW visible
23 Jul 8.5 03:42:12 10° NNE 03:45:57 46° NE 03:45:57 46° NE visible
24 Jul 9.8 03:13:42 10° NE 03:16:10 22° ENE 03:16:10 22° ENE visible
24 Jul 9.1 04:53:42 10° NW 04:56:54 18° WNW 04:56:54 18° WNW visible
25 Jul 8.2 04:23:01 10° N 04:27:06 39° NW 04:27:06 39° NW visible
26 Jul 8.2 03:53:23 10° NNE 03:57:19 54° NNE 03:57:19 54° NNE visible
27 Jul 9.4 03:24:31 10° NE 03:27:31 29° ENE 03:27:31 29° ENE visible
27 Jul 9.4 05:06:00 10° NW 05:08:15 13° WNW 05:08:15 13° WNW visible
28 Jul 10.5 02:56:50 10° ENE 02:57:44 13° ENE 02:57:44 13° ENE visible
28 Jul 8.6 04:34:37 10° NNW 04:38:28 30° WNW 04:38:28 30° WNW visible
29 Jul 8.0 04:04:39 10° N 04:08:40 53° NNW 04:08:40 53° NNW visible
30 Jul 8.9 03:35:30 10° NNE 03:38:53 37° NE 03:38:53 37° NE visible
31 Jul 10.1 03:07:16 10° NE 03:09:06 17° ENE 03:09:06 17° ENE visible
31 Jul 8.9 04:46:22 10° NNW 04:49:49 22° WNW 04:49:49 22° WNW visible
